< < Back
Terminal Aerodrome Forecast


Current Version              Previous Versions:   1  2  3  4  5  6  7  8  9  

Terminal Aerodrome Forecast

107
FTUS42 KJAX 250542
TAFJAX
TAF
KJAX 250542Z 2506/2606 18005KT P6SM SKC
     FM250800 VRB04KT P6SM SKC
     FM251600 12007KT P6SM SCT050 SCT250
     FM251900 12012KT P6SM SCT060
     FM260100 VRB04KT P6SM FEW250=

Latest METAR

332
SAUS80 KWBC 250800 RRA
MTRJAX
METAR KJAX 250756Z 00000KT 10SM CLR 24/22 A3003 RMK AO2 SLP168
T02390222


USA.gov is the U.S. government's official web portal to all federal, state and local government web resources and services.